Weather History for KROX - January, 2013

Change the Weather History Date:

Thursday, January 31, 2013

  Actual Average Record
Temperature  
Mean Temperature -11 °F -  
Max Temperature -2 °F 12 °F 45 °F (1993)
Min Temperature -20 °F -9 °F -33 °F (1950)
Degree Days  
Heating Degree Days 76    
Moisture  
Dew Point -17 °F    
Average Humidity 69    
Maximum Humidity 77    
Minimum Humidity 59    
Precipitation  
Precipitation 0.00 in - - ()
Sea Level Pressure  
Sea Level Pressure 30.06 in    
Wind  
Wind Speed 13 mph (WNW)    
Max Wind Speed 18 mph    
Max Gust Speed 23 mph    
Visibility 8 miles    
Events Snow    
Averages and records for this station are not official NWS values.
T = Trace of Precipitation, MM = Missing Value Source: NWS Daily Summary

Daily Weather History Graph

Daily Weather History Graph

Search for Another Location

Airport or City:

Trip Planner

Search our weather history database for the weather conditions in past years. The results will help you decide how hot, cold, wet, or windy it might be!

Date:

Astronomy

Jan. 31, 2013 Rise Set
Actual Time 7:53 AM CST 5:19 PM CST
Civil Twilight 7:19 AM CST 5:53 PM CST
Nautical Twilight 6:41 AM CST 6:31 PM CST
Astronomical Twilight 6:04 AM CST 7:08 PM CST
Moon 10:54 PM CST 9:25 AM CST
Length of Visible Light 10h 33m
Length of Day
9h 25m
Waning Gibbous, 79% of the Moon is Illuminated
Jan 31
Waning Gibbous
Feb 3
Last Quarter
Feb 10
New
Feb 17
First Quarter
Feb 25
Full

Hourly Weather History & Observations

Time (CST) Temp. Windchill Dew Point Humidity Pressure Visibility Wind Dir Wind Speed Gust Speed Precip Events Conditions
12:14 AM -2.2 °F -19.9 °F -9.4 °F 71% 29.84 in 5.0 mi NW 11.5 mph - N/A   Haze
12:35 AM -2.2 °F -20.7 °F -9.4 °F 71% 29.84 in 7.0 mi NW 12.7 mph - N/A   Scattered Clouds
12:54 AM -2.2 °F -22.9 °F -9.4 °F 71% 29.85 in 10.0 mi NNW 16.1 mph - N/A   Clear
1:14 AM -2.2 °F -20.7 °F -9.4 °F 71% 29.86 in 10.0 mi NNW 12.7 mph - N/A   Scattered Clouds
1:35 AM -4.0 °F -26.4 °F -11.2 °F 71% 29.86 in 10.0 mi NW 18.4 mph - N/A   Scattered Clouds
1:54 AM -4.0 °F -25.8 °F -11.2 °F 71% 29.87 in 7.0 mi NNW 17.3 mph - N/A   Clear
2:14 AM -4.0 °F -24.5 °F -11.2 °F 71% 29.88 in 5.0 mi NNW 15.0 mph - N/A Snow Light Snow
2:35 AM -4.0 °F -24.5 °F -11.2 °F 71% 29.89 in 5.0 mi NW 15.0 mph - N/A   Haze
2:54 AM -4.0 °F -23.0 °F -11.2 °F 71% 29.89 in 5.0 mi NW 12.7 mph - N/A   Haze
3:14 AM -5.8 °F -23.4 °F -11.2 °F 77% 29.90 in 7.0 mi NW 10.4 mph - N/A Snow Light Snow
3:34 AM -5.8 °F -24.4 °F -11.2 °F 77% 29.90 in 5.0 mi NW 11.5 mph - N/A Snow Light Snow
3:54 AM -5.8 °F -25.2 °F -11.2 °F 77% 29.91 in 4.0 mi NW 12.7 mph - N/A   Haze
4:14 AM -5.8 °F -25.2 °F -11.2 °F 77% 29.91 in 4.0 mi NW 12.7 mph - N/A Snow Light Snow
4:34 AM -5.8 °F -24.4 °F -11.2 °F 77% 29.92 in 5.0 mi NW 11.5 mph - N/A   Haze
4:54 AM -5.8 °F -24.4 °F -11.2 °F 77% 29.93 in 4.0 mi NW 11.5 mph - N/A Snow Light Snow
5:14 AM -5.8 °F -23.4 °F -11.2 °F 77% 29.94 in 4.0 mi NW 10.4 mph - N/A Snow Light Snow
5:34 AM -5.8 °F -26.8 °F -11.2 °F 77% 29.95 in 5.0 mi NW 15.0 mph - N/A Snow Light Snow
5:55 AM -5.8 °F -26.0 °F -11.2 °F 77% 29.96 in 4.0 mi NW 13.8 mph - N/A Snow Light Snow
6:14 AM -5.8 °F -26.0 °F -11.2 °F 77% 29.97 in 4.0 mi NW 13.8 mph - N/A Snow Light Snow
6:35 AM -5.8 °F -24.4 °F -13.0 °F 71% 29.98 in 5.0 mi NW 11.5 mph - N/A Snow Light Snow
6:54 AM -5.8 °F -26.0 °F -13.0 °F 71% 29.99 in 4.0 mi NW 13.8 mph - N/A Snow Light Snow
7:14 AM -7.6 °F -28.3 °F -13.0 °F 77% 30.00 in 5.0 mi NW 13.8 mph - N/A Snow Light Snow
7:35 AM -7.6 °F -27.5 °F -14.8 °F 71% 30.01 in 7.0 mi NW 12.7 mph - N/A   Clear
7:54 AM -7.6 °F -27.5 °F -14.8 °F 71% 30.02 in 7.0 mi NW 12.7 mph - N/A Snow Light Snow
8:14 AM -7.6 °F -27.5 °F -14.8 °F 71% 30.03 in 10.0 mi NW 12.7 mph - N/A   Clear
8:34 AM -7.6 °F -28.3 °F -14.8 °F 71% 30.04 in 7.0 mi NW 13.8 mph - N/A   Clear
8:54 AM -9.4 °F -31.4 °F -16.6 °F 71% 30.05 in 4.0 mi NW 15.0 mph - N/A Snow Light Snow
9:34 AM -7.6 °F -28.3 °F -16.6 °F 65% 30.06 in 7.0 mi NW 13.8 mph - N/A   Clear
9:53 AM -7.6 °F -29.1 °F -16.6 °F 65% 30.07 in 5.0 mi NW 15.0 mph - N/A   Haze
10:14 AM -7.6 °F -27.5 °F -16.6 °F 65% 30.08 in 10.0 mi NW 12.7 mph 19.6 mph N/A   Clear
10:34 AM -7.6 °F -26.6 °F -16.6 °F 65% 30.09 in 10.0 mi WNW 11.5 mph - N/A   Clear
10:54 AM -7.6 °F -26.6 °F -16.6 °F 65% 30.10 in 10.0 mi WNW 11.5 mph - N/A   Clear
11:14 AM -7.6 °F -28.3 °F -16.6 °F 65% 30.11 in 10.0 mi WNW 13.8 mph 18.4 mph N/A   Clear
11:34 AM -7.6 °F -28.3 °F -16.6 °F 65% 30.11 in 10.0 mi WNW 13.8 mph 19.6 mph N/A   Clear
11:55 AM -7.6 °F -27.5 °F -16.6 °F 65% 30.11 in 10.0 mi WNW 12.7 mph 18.4 mph N/A   Clear
12:14 PM -7.6 °F -28.3 °F -16.6 °F 65% 30.11 in 10.0 mi WNW 13.8 mph 19.6 mph N/A   Clear
12:34 PM -7.6 °F -27.5 °F -16.6 °F 65% 30.11 in 10.0 mi WNW 12.7 mph 20.7 mph N/A   Clear
12:54 PM -7.6 °F -26.6 °F -16.6 °F 65% 30.11 in 10.0 mi WNW 11.5 mph 19.6 mph N/A   Clear
1:14 PM -7.6 °F -27.5 °F -16.6 °F 65% 30.11 in 10.0 mi WNW 12.7 mph 18.4 mph N/A   Clear
1:34 PM -7.6 °F -28.3 °F -16.6 °F 65% 30.12 in 10.0 mi WNW 13.8 mph 17.3 mph N/A   Clear
1:54 PM -7.6 °F -28.3 °F -18.4 °F 59% 30.12 in 10.0 mi West 13.8 mph - N/A   Clear
2:14 PM -7.6 °F -28.3 °F -18.4 °F 59% 30.12 in 10.0 mi West 13.8 mph 20.7 mph N/A   Clear
2:34 PM -9.4 °F -29.8 °F -18.4 °F 65% 30.13 in 10.0 mi West 12.7 mph 21.9 mph N/A   Clear
2:54 PM -9.4 °F -30.6 °F -18.4 °F 65% 30.14 in 10.0 mi West 13.8 mph 23.0 mph N/A   Clear
3:14 PM -9.4 °F -32.1 °F -18.4 °F 65% 30.15 in 10.0 mi West 16.1 mph 23.0 mph N/A   Clear
3:34 PM -11.2 °F -32.9 °F -20.2 °F 64% 30.16 in 10.0 mi West 13.8 mph 23.0 mph N/A   Clear
3:54 PM -11.2 °F -32.1 °F -20.2 °F 64% 30.17 in 10.0 mi West 12.7 mph 21.9 mph N/A   Clear
4:14 PM -11.2 °F -32.9 °F -20.2 °F 64% 30.17 in 10.0 mi West 13.8 mph 20.7 mph N/A   Clear
4:34 PM -13.0 °F -33.4 °F -22.0 °F 64% 30.17 in 10.0 mi West 11.5 mph - N/A   Clear
4:54 PM -13.0 °F -35.2 °F -22.0 °F 64% 30.18 in 10.0 mi West 13.8 mph 19.6 mph N/A   Clear
5:14 PM -14.8 °F -35.6 °F -23.8 °F 64% 30.18 in 10.0 mi West 11.5 mph - N/A   Clear
5:35 PM -14.8 °F -34.6 °F -23.8 °F 64% 30.19 in 10.0 mi WNW 10.4 mph - N/A   Clear
6:15 PM -16.6 °F -37.9 °F -23.8 °F 70% 30.19 in 10.0 mi WNW 11.5 mph - N/A   Clear
6:34 PM -16.6 °F -38.9 °F -23.8 °F 70% 30.20 in 10.0 mi West 12.7 mph - N/A   Clear
6:54 PM -16.6 °F -36.8 °F -23.8 °F 70% 30.19 in 10.0 mi WNW 10.4 mph - N/A   Clear
7:14 PM -16.6 °F -36.8 °F -23.8 °F 70% 30.19 in 10.0 mi WNW 10.4 mph - N/A   Clear
7:34 PM -18.4 °F -37.9 °F -25.6 °F 70% 30.20 in 10.0 mi West 9.2 mph - N/A   Clear
8:14 PM -18.4 °F -36.6 °F -25.6 °F 70% 30.21 in 10.0 mi West 8.1 mph - N/A   Clear
8:34 PM -18.4 °F -39.1 °F -27.4 °F 63% 30.21 in 10.0 mi West 10.4 mph - N/A   Clear
8:54 PM -20.2 °F -37.3 °F -25.6 °F 76% 30.21 in 10.0 mi West 6.9 mph - N/A   Clear
9:14 PM -20.2 °F -35.5 °F -27.4 °F 69% - 10.0 mi West 5.8 mph - N/A   Clear
9:34 PM -20.2 °F -37.3 °F -27.4 °F 69% 30.21 in 10.0 mi West 6.9 mph - N/A   Clear
10:14 PM -20.2 °F -35.5 °F -27.4 °F 69% 30.21 in 10.0 mi West 5.8 mph - N/A   Clear
10:34 PM -20.2 °F -37.3 °F -27.4 °F 69% 30.20 in 10.0 mi West 6.9 mph - N/A   Clear
11:14 PM -20.2 °F -35.5 °F -27.4 °F 69% 30.19 in 10.0 mi West 5.8 mph - N/A   Clear
11:34 PM -20.2 °F -35.5 °F -27.4 °F 69% 30.19 in 10.0 mi West 5.8 mph - N/A   Clear
11:54 PM -20.2 °F -35.5 °F -27.4 °F 69% 30.19 in 10.0 mi West 5.8 mph - N/A   Clear